Wind_Speed
62 61 60 59 58 58 57 56 55 55 55 56 56 56 56 55 55 54 54 54 54 54 54 54 54 54 53 54 54 55 55 55 55 56 56 57 57 57 57 58 58 59 58 59 59 60 61 62 64 66 69 70 72 72 72 72 72 72 73 74 74 74 73 72 72 72 73 72 72 71 70 70 69 68 66 65 64 64 64 64 64 63 62 61 61
64 64 63 63 62 62 61 60 59 59 58 58 58 58 58 57 57 57 57 57 57 57 57 58 58 57 57 57 57 57 57 58 59 59 60 60 61 61 61 61 61 62 62 61 61 61 62 62 63 64 66 68 70 71 72 73 73 73 73 73 74 75 75 74 73 73 74 75 75 74 73 73 73 72 71 70 69 68 67 67 67 66 65 64 64
66 65 65 65 65 65 65 64 63 63 63 63 62 60 59 59 59 59 59 59 59 60 60 60 61 61 61 60 60 60 61 61 62 63 63 64 64 64 64 64 64 64 64 64 64 64 64 65 65 65 66 67 68 69 70 71 72 73 73 73 73 73 73 74 74 73 74 75 76 76 76 76 76 76 75 74 73 72 72 72 70 69 68 68 68
67 66 65 65 65 66 66 66 66 66 67 67 66 64 63 62 61 61 61 61 61 62 62 63 64 64 64 64 64 65 65 65 65 66 66 67 67 67 67 66 66 66 66 66 66 67 67 67 67 68 68 68 68 69 69 70 71 72 72 73 73 72 72 72 72 73 73 75 76 76 75 76 78 78 78 78 78 77 76 77 75 73 71 71 70
65 64 64 64 64 64 66 67 66 67 68 69 69 68 67 65 65 64 63 63 63 64 64 65 66 67 67 68 68 69 69 69 69 69 69 70 70 70 69 69 69 68 68 68 68 68 68 69 69 69 70 70 70 70 71 71 72 72 73 73 73 73 73 73 73 73 74 75 77 77 76 76 77 78 78 78 79 79 78 78 78 77 75 73 72
64 64 63 64 64 63 65 66 65 66 68 69 71 71 69 68 68 67 66 65 65 66 67 68 68 69 70 70 71 72 73 73 73 73 73 73 73 72 72 72 72 72 71 71 71 70 70 70 70 70 71 71 72 72 73 73 73 74 74 75 74 74 74 74 74 74 74 75 77 78 77 77 77 78 78 78 78 78 78 77 77 77 77 76 74
65 65 64 65 65 64 65 65 65 65 66 68 70 71 70 70 70 70 69 67 68 69 70 71 71 72 72 73 74 75 76 77 77 76 75 75 75 75 75 75 75 75 75 74 74 73 73 73 73 72 72 73 73 74 74 74 75 76 76 76 76 76 76 76 76 75 76 76 78 79 79 79 78 79 80 80 78 78 79 78 77 77 77 76 76
66 66 66 66 66 66 66 66 65 65 65 67 68 69 70 70 70 70 68 68 70 71 71 72 74 75 76 76 77 78 79 80 79 79 78 78 79 79 79 78 78 78 78 77 77 77 76 76 76 75 75 75 75 75 75 76 76 77 77 77 77 77 77 78 78 78 78 78 79 80 80 81 81 81 82 82 81 80 80 79 78 77 77 76 76
68 68 68 68 68 67 67 67 66 65 65 66 66 67 68 69 69 69 67 67 69 70 72 75 76 77 79 81 81 83 83 83 81 80 80 81 82 82 81 81 81 81 81 81 80 80 80 80 79 79 78 78 78 78 78 78 78 78 79 79 78 78 78 79 79 79 79 79 80 81 82 82 83 84 85 85 83 82 82 81 79 79 79 78 77
70 70 70 70 69 69 68 68 68 67 66 66 66 67 67 67 68 68 68 68 69 69 73 77 77 78 82 85 85 86 86 85 83 82 82 83 84 84 84 84 84 84 83 84 83 83 83 83 83 83 82 82 82 81 81 81 81 81 81 81 80 80 80 80 80 80 80 80 81 82 83 83 85 86 86 86 86 84 84 83 81 81 81 80 79
72 72 72 71 71 71 70 70 69 69 69 68 68 68 68 67 67 68 68 70 71 71 74 76 76 78 81 83 85 87 88 88 86 84 84 85 85 86 86 86 86 86 86 86 86 86 86 86 86 86 86 86 85 85 85 85 84 84 84 84 84 83 83 83 83 83 83 83 83 83 84 85 87 88 88 88 88 86 85 84 83 83 82 81 81
74 74 74 74 73 73 72 72 71 71 71 70 70 69 69 68 69 68 69 71 73 74 76 77 78 79 80 81 83 85 87 89 89 89 88 88 88 88 87 87 88 88 88 88 88 89 88 88 89 89 89 89 88 88 88 87 87 87 87 87 86 86 86 86 87 87 86 86 86 86 87 87 88 90 90 90 89 88 87 86 86 85 85 83 82
74 75 75 75 75 75 74 73 72 72 72 72 72 71 71 70 70 70 70 71 73 75 78 80 81 82 83 84 84 84 85 86 88 90 91 91 91 90 90 90 90 90 90 89 90 90 90 90 91 91 91 90 90 90 90 89 90 90 89 89 89 89 90 90 90 90 90 90 89 89 90 90 90 92 93 93 92 90 89 88 87 87 86 85 84
74 75 76 77 77 76 76 75 74 73 73 73 73 72 72 72 72 72 72 72 73 75 78 81 83 85 86 88 88 87 87 87 87 88 89 91 92 93 93 93 93 92 92 92 92 92 92 92 92 92 92 92 92 91 91 91 91 91 91 91 91 92 92 93 93 93 93 93 92 92 93 94 93 94 96 96 95 94 93 92 90 89 87 86 85
75 76 77 77 77 77 76 75 74 73 73 73 73 73 73 74 74 74 74 73 74 76 78 80 82 85 88 90 91 91 90 90 90 90 90 90 91 93 94 95 95 96 96 96 95 95 95 94 94 94 94 93 93 93 92 92 92 92 93 93 93 93 93 94 94 94 94 94 94 94 95 96 96 97 98 99 99 97 96 95 93 91 89 88 87
77 78 78 78 78 77 76 75 74 74 74 73 73 73 74 74 75 75 75 75 74 76 78 79 81 83 86 88 90 92 93 93 94 94 93 92 92 92 93 94 95 96 97 97 98 98 99 98 97 97 96 96 96 95 94 94 93 93 93 93 94 94 94 95 96 96 96 95 95 96 97 98 99 100 101 101 101 100 99 97 95 94 92 91 90
79 79 79 78 78 77 76 75 75 74 74 74 74 74 74 75 75 75 76 76 76 76 77 78 80 81 83 85 87 89 92 94 95 95 94 94 94 94 94 94 94 94 94 94 95 96 98 99 99 99 99 99 99 99 98 97 97 96 96 95 95 96 96 97 98 98 97 97 98 98 99 100 101 102 103 104 103 102 100 98 96 96 94 93 91
80 80 79 78 77 76 76 75 75 75 75 74 74 75 75 75 75 76 76 77 77 77 78 78 78 78 80 82 84 86 89 91 93 94 95 96 96 96 97 97 97 96 95 94 94 94 94 95 96 96 97 98 99 100 100 100 99 99 99 99 99 99 100 101 101 101 101 102 102 103 103 103 104 105 106 106 105 104 101 98 98 97 95 93 92
80 79 78 77 76 76 75 75 75 74 74 74 75 75 75 75 75 76 76 77 77 78 78 77 77 76 77 79 81 83 86 87 89 91 93 95 96 97 98 99 99 99 99 98 97 95 94 94 94 94 94 94 95 96 96 97 97 97 97 97 98 99 100 101 102 102 104 106 107 108 108 109 110 111 110 109 107 105 102 99 98 97 95 93 93
78 77 77 76 75 74 74 74 74 74 73 74 75 75 76 76 75 75 76 76 77 77 77 76 75 76 77 78 79 80 82 84 85 87 89 91 94 95 97 98 99 99 99 99 99 98 96 95 93 93 92 91 91 91 91 92 92 92 92 92 93 95 96 97 98 100 102 104 106 109 112 114 115 115 113 111 109 107 104 101 100 98 96 94 92
74 74 73 72 72 72 72 72 72 73 73 73 74 75 75 75 75 74 74 74 75 76 75 74 74 74 75 76 77 78 78 79 80 82 85 87 90 92 94 95 96 97 98 98 99 99 97 95 93 91 88 86 84 83 83 84 84 85 86 87 88 90 92 94 95 97 99 102 106 110 112 114 115 114 112 110 108 107 105 104 102 101 99 96 94
70 70 69 68 68 68 69 69 70 70 71 71 72 73 73 73 72 71 70 71 71 73 73 72 72 72 73 74 76 76 75 75 75 77 80 83 86 88 89 90 92 93 94 96 97 97 96 94 91 88 85 82 79 77 76 76 76 76 77 79 81 83 86 88 91 95 99 103 105 107 107 107 108 107 107 106 105 104 103 102 102 102 101 100 97
67 66 65 64 64 65 65 65 66 67 67 67 68 69 69 68 67 65 65 66 67 69 70 70 70 71 72 73 74 74 74 73 72 74 76 79 80 82 84 85 87 88 89 90 91 92 92 91 88 86 82 79 75 72 70 68 68 68 70 72 75 77 81 85 90 94 98 99 99 99 99 99 99 99 98 96 94 93 92 92 93 94 97 99 99
63 62 62 62 62 62 62 62 63 63 63 63 63 64 63 62 61 60 61 63 64 65 66 66 67 69 70 72 73 74 73 73 72 73 74 75 75 76 78 80 81 82 83 83 84 85 86 85 84 82 80 76 72 68 65 62 62 63 65 69 72 76 81 85 89 91 91 90 90 90 90 89 88 87 86 83 80 78 78 77 79 82 86 91 95
58 59 59 59 59 60 60 60 61 60 60 60 60 60 60 59 58 58 59 61 62 63 63 64 65 67 68 71 72 73 73 73 73 72 72 71 71 70 71 73 73 74 75 76 77 78 78 77 77 76 74 71 67 64 61 59 60 62 66 70 74 78 81 84 85 84 82 81 80 80 80 80 79 78 77 76 73 71 70 69 70 72 76 81 86
54 56 56 56 56 57 58 59 59 58 58 58 59 59 58 57 57 58 58 59 60 61 62 63 64 65 67 68 69 71 72 73 73 73 72 71 70 68 67 67 67 68 69 69 69 70 70 70 69 69 67 64 61 59 58 59 62 65 69 72 75 76 77 77 77 75 75 74 74 74 74 74 74 73 72 71 68 67 66 65 65 66 69 74 78
51 53 53 53 54 55 56 57 57 56 56 57 57 57 56 56 56 57 57 58 59 61 62 62 63 63 64 65 66 68 69 70 70 71 71 70 69 68 66 65 65 65 65 65 65 65 65 64 63 62 61 60 58 58 58 60 63 66 68 70 72 72 72 71 70 69 69 69 68 68 69 69 68 67 67 65 64 63 62 61 61 63 66 69 72
50 51 51 51 52 53 53 53 53 53 53 54 54 54 54 54 54 55 56 57 58 60 60 61 62 62 63 64 65 66 66 67 68 68 68 67 66 65 63 62 61 61 61 62 61 60 59 59 59 58 57 56 56 56 58 60 62 63 65 67 68 68 67 65 64 63 62 61 61 61 62 62 61 61 61 60 60 60 58 58 59 60 63 65 67
52 52 51 52 51 51 52 51 51 51 51 51 51 52 52 52 53 53 54 55 56 57 58 60 61 62 63 64 64 65 66 66 66 66 66 64 63 62 60 58 57 56 56 56 56 56 56 56 55 54 52 52 53 55 57 58 59 60 61 62 62 61 59 57 55 53 53 53 53 55 55 55 55 54 54 54 54 55 54 54 55 57 59 60 63
51 50 51 51 51 51 51 51 50 51 51 51 51 51 51 51 52 52 52 53 54 55 56 58 59 60 61 62 63 63 64 64 64 64 64 63 62 60 58 56 54 53 52 52 53 54 53 51 50 49 49 50 52 52 52 52 53 54 54 54 53 52 50 48 46 46 46 47 47 48 48 48 48 48 47 48 49 49 48 49 50 52 54 56 59
47 47 47 48 48 49 49 49 49 50 50 50 51 51 51 51 51 51 52 53 53 54 56 57 57 58 59 59 60 60 61 61 62 61 61 61 59 57 55 53 53 52 53 53 52 49 47 46 47 47 47 47 46 46 45 45 45 46 46 45 44 43 43 42 42 41 41 42 42 43 44 44 44 44 44 44 45 45 45 45 46 47 49 52 55
43 44 44 44 44 45 45 45 46 47 48 48 49 49 50 50 50 51 51 52 53 54 54 55 55 56 56 56 56 57 57 57 58 57 57 56 55 53 53 52 53 53 52 49 46 44 43 44 45 44 42 41 40 39 39 39 39 39 40 40 39 39 39 39 38 38 38 38 39 41 41 42 42 42 42 42 42 43 43 43 44 44 46 48 51
40 40 40 40 40 40 40 41 41 42 43 44 45 46 46 47 47 48 48 49 50 51 51 51 51 51 51 52 52 52 53 53 53 52 51 51 50 51 52 52 52 49 45 41 40 40 41 41 40 39 37 36 35 35 34 34 35 35 36 36 36 36 36 36 36 35 35 36 37 38 39 39 39 40 39 39 40 41 41 42 42 42 44 45 48
36 36 36 36 36 36 36 36 36 37 38 39 40 41 42 42 43 43 44 44 45 45 45 45 46 46 46 47 47 47 48 47 46 45 45 45 46 48 50 49 45 40 36 35 36 38 38 36 35 34 33 32 31 31 31 31 32 33 34 34 34 34 33 32 32 32 32 33 35 36 36 36 36 36 35 35 36 37 38 39 40 41 42 43 45
33 32 32 32 32 32 31 31 32 32 33 35 36 37 37 38 39 39 39 39 40 40 40 40 40 41 41 41 41 41 39 38 37 38 39 41 44 46 46 43 37 33 31 32 34 35 34 32 30 29 29 29 29 29 29 30 31 32 33 33 32 31 30 28 28 29 30 32 33 34 33 33 32 31 31 31 32 34 36 37 38 39 40 41 42
30 29 29 29 29 28 28 28 29 30 31 32 33 34 34 35 35 35 35 35 35 35 35 35 35 35 35 34 33 32 31 31 33 35 37 39 42 42 40 36 32 30 30 30 30 30 30 29 28 27 27 27 28 29 30 31 31 32 32 31 29 28 26 25 26 27 28 29 31 31 30 29 28 27 27 28 29 31 33 34 36 37 38 39 39
28 27 27 27 27 27 27 27 28 28 29 30 31 31 31 31 31 31 31 31 31 31 30 31 30 29 28 27 26 26 28 30 32 33 35 38 39 38 34 31 29 29 29 27 26 26 27 27 27 27 27 27 28 29 30 31 31 30 29 27 26 24 24 24 24 25 25 27 27 27 26 25 25 25 25 26 27 29 30 31 32 33 34 35 36
27 26 26 26 26 26 26 26 27 27 28 28 28 28 27 27 27 27 27 27 27 27 27 26 25 24 24 24 25 27 29 30 30 32 35 36 36 34 30 28 28 28 26 24 24 25 26 26 27 28 28 28 28 28 29 29 29 27 26 24 23 22 22 23 23 23 23 23 23 23 23 23 23 23 24 24 25 25 26 27 28 30 31 32 33
26 26 26 25 25 25 25 25 25 25 25 25 24 24 23 24 24 24 25 25 25 24 23 23 22 23 23 24 26 28 29 28 30 32 33 33 32 30 28 27 26 25 24 23 23 23 24 25 27 28 28 27 26 26 26 25 25 24 23 21 21 20 21 21 22 21 20 20 21 21 22 22 22 22 22 22 22 23 24 24 25 26 27 29 31
25 25 25 25 24 24 24 24 24 24 23 22 22 22 22 23 23 23 24 23 23 23 22 22 23 23 24 26 28 28 28 28 30 32 31 29 28 26 25 24 24 24 23 22 22 22 23 24 26 26 26 25 24 23 23 22 22 21 20 19 18 18 19 20 19 19 18 18 19 20 21 21 21 21 21 21 21 22 22 23 23 24 24 26 27
26 26 26 25 25 25 25 24 24 23 23 22 23 23 24 24 23 23 23 23 23 23 22 22 23 24 25 27 28 27 27 28 30 30 28 26 24 22 21 22 23 23 22 21 21 21 22 23 24 24 23 22 22 22 21 21 20 19 18 17 17 17 17 17 17 17 17 18 19 20 21 21 20 20 20 21 21 22 22 22 22 22 23 23 24
27 26 26 25 25 26 25 25 25 24 24 24 25 25 25 25 24 24 24 24 24 23 23 23 23 25 27 28 27 26 26 27 28 26 24 22 20 18 19 21 22 21 21 20 20 21 21 21 21 21 21 21 21 20 20 19 18 17 16 16 16 16 16 16 16 16 17 19 20 21 21 20 20 20 20 20 21 21 21 21 22 22 22 22 23
27 27 27 27 26 26 26 26 26 26 26 27 27 27 26 26 26 26 26 26 25 24 24 24 24 26 28 28 26 24 24 25 25 23 21 20 18 17 18 20 20 20 20 19 20 20 20 20 20 20 19 19 19 19 18 18 17 16 15 15 15 15 15 15 16 17 18 20 20 20 20 19 19 19 19 19 19 20 20 20 20 20 20 21 21
29 29 29 28 28 28 28 27 27 27 28 29 29 28 28 28 28 27 27 27 26 25 25 25 25 27 29 27 24 22 22 23 23 21 19 18 16 16 18 19 19 18 19 19 19 19 20 20 20 19 19 18 18 18 18 17 16 15 14 14 15 15 15 15 16 17 18 19 19 19 19 19 18 18 18 18 17 17 18 18 18 18 18 19 19
30 31 31 30 30 31 30 29 29 30 30 31 31 31 31 31 30 29 29 28 27 26 26 26 26 28 29 26 23 21 21 22 21 20 18 17 16 16 18 18 18 17 17 17 18 18 19 19 19 19 18 18 18 17 17 16 15 15 15 14 15 15 15 15 16 17 17 18 18 18 17 17 17 17 16 16 15 15 15 15 16 16 17 18 19
32 32 32 32 34 34 33 32 32 32 32 33 34 34 34 33 32 31 30 29 28 27 27 26 26 28 28 25 22 20 20 21 20 19 18 17 16 17 18 18 17 16 16 16 17 17 18 18 19 18 18 18 17 16 15 14 14 15 16 16 16 16 16 15 15 16 16 17 17 16 16 16 15 15 14 14 13 13 13 14 15 16 17 17 18
34 33 34 35 35 35 34 34 34 34 35 36 36 36 35 35 34 33 32 31 29 28 27 26 27 28 28 24 21 20 20 20 20 20 19 18 17 18 18 18 16 15 14 15 16 16 16 17 18 17 17 17 17 15 14 13 14 15 17 18 18 17 17 16 16 15 15 15 15 15 15 14 13 13 12 12 12 12 12 13 14 15 15 15 16
35 35 35 35 35 35 36 36 36 36 37 38 37 37 37 36 35 34 33 32 30 28 27 26 27 28 27 24 21 20 20 20 21 21 20 19 19 19 19 18 16 14 14 15 15 14 15 16 16 16 16 16 16 15 14 14 15 17 18 19 20 19 19 18 16 15 15 15 14 14 13 12 11 10 10 10 10 10 10 11 12 12 12 12 13
34 35 35 36 36 36 37 37 37 38 39 39 39 39 38 37 37 36 34 32 30 29 28 27 27 28 26 24 22 21 20 20 22 22 22 21 20 19 19 18 16 13 13 14 14 13 14 14 14 14 15 15 16 15 14 15 17 18 20 21 21 21 20 18 17 15 15 14 14 13 11 10 9 8 8 8 8 8 8 9 9 9 10 10 10
34 35 35 36 37 38 38 39 40 40 41 40 41 40 39 38 38 36 34 33 31 29 28 27 27 28 26 24 22 21 21 22 23 24 23 22 21 20 20 19 16 14 14 14 13 13 13 13 13 14 14 15 16 16 15 16 18 20 21 22 22 23 21 19 18 16 15 15 14 13 11 10 8 7 7 7 7 7 7 7 7 7 8 8 9
35 36 36 37 38 39 40 41 41 42 42 42 42 42 41 40 38 36 34 33 31 29 28 28 28 28 27 24 22 22 22 23 24 26 25 24 23 21 20 19 18 16 14 14 13 12 12 12 13 14 14 15 15 16 16 17 19 21 22 22 23 23 23 21 19 18 17 16 16 14 12 11 10 8 7 7 7 7 7 7 7 7 7 8 9
Wind_Direction
261 261 260 260 260 259 258 258 257 255 254 253 252 251 250 249 248 247 246 246 245 245 246 247 247 247 247 247 247 248 248 248 247 247 246 245 244 244 244 244 244 244 244 244 244 243 243 243 243 243 242 242 242 242 242 242 241 241 240 241 242 243 245 247 249 252 251 249 250 250 250 251 253 254 254 255 256 258 260 262 263 264 264 264 265
261 261 260 260 260 259 259 258 258 257 255 254 253 252 251 250 249 248 248 247 246 246 246 246 246 246 246 246 247 247 248 248 248 247 247 246 245 244 244 243 243 243 243 244 244 244 244 244 244 244 244 245 245 245 245 245 245 245 245 244 244 244 246 248 250 253 254 253 252 253 252 251 251 252 252 253 254 255 256 258 260 262 263 264 264
260 259 259 259 259 259 258 258 257 257 256 255 254 254 253 252 251 250 248 247 247 247 247 246 246 246 246 246 246 246 246 247 247 247 247 247 247 246 245 244 244 243 242 243 243 243 244 244 244 245 245 245 246 246 246 247 247 247 248 248 248 247 247 248 250 253 255 255 254 254 255 254 253 253 252 252 252 253 255 256 257 258 259 261 262
263 261 259 258 259 259 259 258 257 257 256 256 255 254 253 253 253 252 251 250 249 248 248 247 247 247 246 246 245 245 245 245 246 246 247 247 247 248 247 247 246 246 245 244 243 243 243 244 244 244 245 245 246 246 247 247 247 248 248 249 249 250 249 249 250 252 254 256 256 256 256 256 256 255 255 254 254 253 253 255 256 257 257 258 259
266 264 262 260 258 258 258 257 257 256 256 256 256 254 252 252 252 252 252 252 252 251 250 249 249 248 248 247 247 246 245 245 245 245 245 246 247 247 248 248 248 248 247 247 246 246 245 245 245 245 245 246 246 246 247 247 248 248 248 249 249 249 249 249 250 251 252 254 255 256 256 256 257 257 257 256 256 256 255 254 255 255 256 257 257
266 266 265 263 260 258 257 256 256 255 255 256 256 255 253 252 251 251 251 251 252 253 252 251 250 250 249 249 248 248 247 246 245 245 245 245 246 246 247 247 248 248 248 248 248 248 248 248 247 247 247 247 247 247 247 248 248 249 249 249 249 249 249 249 250 250 251 253 255 256 256 256 257 258 257 257 257 257 257 256 256 255 255 256 256
265 264 264 264 263 261 259 258 256 255 255 255 255 256 255 253 251 250 250 250 251 251 251 251 251 251 250 250 249 249 248 247 247 246 246 246 246 246 246 246 247 247 248 248 248 248 248 249 249 249 249 249 250 249 249 249 249 250 250 250 250 250 250 250 250 250 251 252 254 255 256 256 256 257 258 257 257 257 257 257 257 256 256 256 256
264 264 264 264 263 263 262 261 259 258 256 256 255 255 255 254 253 252 251 250 250 251 252 252 252 252 251 251 250 250 249 248 247 247 247 247 246 246 246 246 246 247 247 247 248 248 248 249 249 249 250 250 251 251 251 251 251 251 252 252 252 252 252 252 252 251 252 252 253 255 256 256 256 257 257 258 257 257 257 257 257 257 256 256 255
264 265 265 265 264 264 264 263 262 260 259 258 257 256 255 255 254 253 252 251 250 250 251 251 250 251 251 250 250 249 249 249 248 247 247 248 247 247 247 247 247 247 247 247 247 248 248 249 249 249 250 250 251 251 252 252 252 253 253 253 254 254 254 254 254 253 253 253 254 255 256 256 257 257 257 257 257 257 257 257 256 257 256 256 255
264 264 264 265 265 265 264 264 264 263 261 260 259 258 256 255 254 253 251 250 249 248 249 249 249 249 250 250 249 249 249 249 249 248 248 249 249 249 248 248 248 247 247 247 247 248 248 248 249 249 249 250 250 251 252 252 252 253 253 254 254 254 255 255 255 255 255 255 255 256 256 257 257 257 257 257 257 257 257 257 256 256 256 256 256
264 264 264 264 264 264 264 264 264 264 263 262 260 259 258 256 255 253 251 250 249 248 249 250 250 250 250 250 251 251 251 251 250 249 249 249 249 249 249 249 249 249 249 248 248 249 248 249 249 249 249 249 250 250 251 251 252 252 253 253 254 254 254 254 255 255 255 255 256 256 256 257 258 258 258 258 258 257 257 258 257 257 256 256 256
263 263 264 264 263 263 263 263 263 263 263 263 262 261 259 258 256 254 252 250 249 248 248 249 250 251 252 252 252 252 252 252 252 251 250 250 250 250 250 250 250 250 250 250 250 250 250 250 250 250 250 250 250 251 251 251 252 252 253 253 254 254 254 254 255 255 255 255 255 255 256 256 257 258 259 258 258 258 257 257 257 257 257 256 255
261 262 263 263 263 263 262 262 262 262 262 262 262 262 261 260 258 256 254 252 251 249 248 248 248 250 251 252 253 253 253 254 254 253 252 251 251 251 251 251 251 251 251 251 251 251 251 251 252 252 252 252 252 252 252 253 253 253 254 254 254 255 255 255 255 255 255 255 255 255 256 256 256 257 258 258 258 258 258 257 256 256 257 257 256
261 261 261 261 261 261 261 261 262 262 262 262 261 261 261 260 259 258 257 255 254 252 250 249 248 248 249 250 252 253 253 254 255 255 255 253 252 252 251 252 252 253 253 253 253 253 253 253 253 253 253 254 254 254 254 254 254 255 255 255 255 255 256 256 256 256 256 256 256 256 256 256 256 256 257 257 257 257 256 256 256 256 256 256 256
260 260 260 260 260 260 260 261 261 261 261 262 262 262 261 260 260 259 258 256 255 254 253 252 250 249 249 249 250 251 253 253 254 255 256 256 255 254 253 252 252 252 253 253 254 254 254 254 254 254 255 255 255 255 255 255 255 256 256 256 256 257 257 257 257 257 257 257 256 256 256 256 256 256 256 256 256 255 255 255 255 255 255 255 255
259 259 258 258 259 259 260 260 260 260 260 260 261 261 261 261 261 260 259 258 256 255 254 254 253 252 251 250 250 251 252 253 253 254 255 257 258 258 257 256 255 254 253 254 254 254 255 255 255 255 256 256 256 257 257 257 257 257 257 257 258 258 258 258 258 258 258 257 257 257 256 256 256 256 256 255 255 255 254 254 254 254 254 254 254
259 258 258 258 259 259 259 260 260 260 260 260 259 259 259 260 260 261 261 260 259 257 256 255 254 254 253 253 252 251 252 252 253 254 254 255 257 258 259 259 259 258 257 256 256 256 257 257 257 257 257 257 258 258 258 259 259 259 259 259 259 260 260 260 260 259 259 259 258 258 257 256 256 256 255 255 255 254 254 253 253 253 252 252 253
258 258 258 258 259 259 259 259 259 259 260 260 260 260 259 259 259 260 260 260 260 260 259 258 256 255 255 254 254 253 252 253 253 254 254 255 256 257 258 259 260 260 260 260 259 259 259 259 259 259 259 259 259 259 259 259 260 260 260 260 261 261 261 261 261 261 261 261 260 259 258 258 257 256 255 255 255 254 254 253 253 252 252 252 252
257 258 258 258 258 258 258 258 258 258 258 259 259 259 259 259 259 260 260 260 260 260 260 260 259 258 256 255 254 254 253 253 253 253 254 255 255 256 257 258 259 260 261 262 262 262 261 261 261 261 261 261 260 261 261 261 261 261 261 261 261 261 262 262 262 262 262 261 261 261 260 259 258 257 256 255 255 255 254 254 253 253 252 252 251
258 258 258 258 258 258 258 258 258 258 258 258 258 258 258 258 258 259 260 260 260 260 260 260 260 259 258 256 255 254 253 254 254 254 254 255 255 256 257 258 259 260 261 262 263 264 264 264 264 264 264 263 263 263 263 263 263 263 263 263 263 263 263 262 262 262 262 261 261 260 260 259 258 257 257 256 256 256 255 254 254 254 253 252 251
259 259 258 258 258 258 258 258 258 258 257 257 257 257 257 257 257 258 258 259 259 260 260 260 259 259 259 258 258 257 255 255 255 255 255 255 255 256 257 257 258 259 260 261 263 264 265 266 266 267 267 267 266 266 266 266 265 265 265 265 264 264 264 263 262 262 262 261 260 259 258 259 259 260 260 259 259 258 256 255 254 254 253 252 251
259 259 259 259 259 258 258 258 258 257 257 257 257 257 257 257 257 257 257 257 258 258 259 259 259 259 259 259 259 259 259 257 256 256 256 256 256 257 257 258 259 259 260 261 262 264 265 267 268 269 269 270 270 269 269 268 267 266 266 265 264 263 262 261 261 260 260 259 259 259 260 261 263 264 264 264 263 261 259 257 255 254 253 252 250
260 260 261 261 261 260 260 259 259 258 258 257 257 257 257 257 257 257 257 257 256 256 257 258 258 259 260 260 260 261 261 260 259 258 257 257 257 258 258 259 259 260 261 261 263 264 266 268 269 271 272 272 272 271 270 268 266 265 263 262 261 260 259 258 257 257 258 259 261 262 264 265 266 267 268 268 267 265 263 261 258 256 254 252 250
261 262 262 262 262 262 261 260 260 259 259 258 258 258 258 258 257 256 256 256 255 255 256 256 256 257 258 259 260 261 262 261 261 260 259 259 259 259 260 260 261 262 263 263 264 265 266 268 269 271 272 273 273 272 270 268 265 263 261 259 258 257 257 256 257 258 260 263 265 266 267 268 269 269 270 269 268 266 264 261 258 255 253 251 250
261 262 262 262 262 261 261 261 260 260 259 259 259 259 258 258 257 256 255 255 256 256 255 255 255 255 255 256 258 259 261 262 263 263 263 263 263 263 262 263 263 264 264 265 265 266 267 268 269 270 271 272 272 272 271 269 266 263 260 258 257 257 257 259 261 263 266 267 269 269 270 270 270 270 270 269 267 265 262 259 256 253 250 249 247
261 261 261 260 260 260 259 259 259 259 259 259 259 259 259 258 258 257 257 256 257 257 256 256 256 255 255 256 257 258 259 261 262 264 265 266 267 266 266 266 266 266 266 266 267 267 267 268 268 270 271 271 271 270 268 266 264 261 259 259 259 260 262 264 266 268 270 270 270 270 270 270 269 269 268 267 266 264 261 258 256 253 250 248 246
260 259 259 258 257 257 257 257 257 258 258 258 258 258 258 258 258 258 258 258 258 258 258 258 258 258 258 258 258 259 259 260 261 263 264 265 266 267 268 268 267 267 267 268 268 267 268 268 269 270 270 270 269 267 265 263 262 262 262 262 264 265 267 268 269 270 270 270 270 269 268 267 267 267 266 266 265 263 261 258 256 253 251 249 247
262 260 259 258 257 257 256 256 257 257 257 257 257 258 258 257 257 256 256 256 256 257 258 259 259 260 260 260 261 261 262 262 263 264 264 265 266 267 268 268 267 267 267 267 267 268 269 269 268 268 267 267 267 265 264 263 263 263 264 265 267 268 268 269 269 269 269 268 267 265 265 264 264 264 264 264 263 262 260 258 256 254 251 249 248
259 259 259 259 259 259 259 259 258 258 257 257 257 257 256 256 255 255 254 254 255 255 256 256 257 258 258 259 260 261 262 263 264 265 267 267 268 269 269 269 269 268 268 268 268 268 268 267 267 267 267 266 264 263 263 263 264 265 265 266 267 267 268 268 267 266 265 263 262 262 262 262 262 261 262 262 261 261 259 258 256 254 252 250 248
257 257 257 258 258 259 259 259 259 258 258 257 256 256 256 256 256 256 256 256 255 255 256 256 257 257 257 258 259 260 261 262 264 265 267 268 269 270 271 271 271 271 271 269 267 266 267 268 269 268 266 264 263 263 263 264 264 264 264 264 265 266 266 265 264 262 260 260 260 260 260 261 261 261 261 261 260 260 258 257 255 253 251 249 247
256 256 256 256 256 256 256 256 255 255 255 255 255 255 255 255 255 255 256 256 256 256 256 257 257 258 258 259 260 260 261 262 264 265 267 268 270 271 272 273 273 272 270 268 268 269 271 273 271 268 266 265 265 265 264 263 262 263 263 263 264 264 264 262 261 260 260 261 261 262 263 263 263 262 261 261 261 260 259 257 254 252 250 249 247
257 256 255 254 254 253 253 252 252 252 252 252 252 253 253 253 253 253 253 254 255 255 256 257 257 258 259 260 261 261 262 263 264 265 267 269 270 272 272 272 270 268 267 269 272 275 274 272 269 268 268 268 267 266 264 263 263 263 263 263 263 262 262 263 263 264 265 265 265 264 264 264 264 263 262 261 261 260 259 257 255 252 250 248 247
256 256 255 254 252 251 250 249 249 248 248 248 249 249 249 249 249 250 250 251 252 253 254 255 256 257 258 259 260 261 262 263 265 267 269 270 271 270 269 266 265 266 270 274 276 273 270 269 269 270 270 269 267 266 266 265 264 264 264 264 263 264 265 267 268 268 268 266 264 263 263 262 262 261 261 260 260 259 258 257 255 253 251 248 247
254 254 254 253 251 250 249 247 247 246 246 245 245 245 246 246 246 247 247 248 250 251 252 254 255 256 256 258 259 260 262 264 266 268 268 268 266 265 264 265 267 272 276 276 274 271 270 269 270 270 270 269 268 267 266 267 268 269 268 268 268 269 270 270 270 268 266 263 262 261 260 260 259 259 259 258 257 257 256 256 254 253 251 249 248
252 251 251 250 250 249 247 245 244 243 243 242 242 242 242 242 243 244 245 246 247 249 250 252 253 255 256 258 260 262 264 265 266 265 263 262 262 263 265 269 274 277 276 272 271 271 272 271 270 270 272 272 272 273 273 273 273 273 272 272 273 273 271 269 265 262 260 258 258 259 259 258 258 257 257 255 254 253 253 253 252 251 250 249 248
249 248 247 247 246 244 242 240 238 238 238 238 238 238 238 239 239 241 242 244 246 248 250 252 254 257 259 260 261 263 263 263 262 261 262 262 264 266 270 274 277 277 274 272 272 272 273 274 273 273 274 275 276 278 277 276 274 273 273 273 273 272 269 264 259 256 255 254 255 257 258 258 257 255 254 252 250 250 250 251 251 251 250 249 249
247 245 243 241 239 237 236 234 232 231 232 232 233 234 234 235 237 238 240 243 245 248 251 254 256 258 260 261 262 262 261 260 261 262 264 265 266 270 274 278 278 276 274 274 273 273 274 276 277 277 277 277 277 276 274 273 273 273 272 272 271 268 265 261 258 254 252 252 254 256 257 257 255 254 252 250 249 249 249 249 250 251 251 251 250
244 241 239 237 235 233 232 230 229 228 228 229 230 231 232 234 236 238 241 244 247 250 253 255 257 259 261 263 264 263 263 263 264 265 266 267 270 274 277 279 278 277 276 275 273 273 274 275 277 277 278 277 275 272 271 271 271 272 272 271 269 265 262 259 257 255 253 253 254 256 256 256 254 253 253 252 251 251 250 250 249 250 250 250 250
241 238 237 235 233 231 230 229 229 229 229 229 230 232 233 235 238 241 244 247 251 254 256 258 261 264 266 267 267 266 266 267 268 267 267 269 273 277 279 279 277 275 274 273 272 271 272 273 274 274 275 274 273 272 271 270 270 270 270 269 267 263 260 258 257 256 255 254 254 255 255 254 254 254 255 256 255 255 253 252 250 249 249 248 248
237 236 235 233 232 231 230 229 228 228 229 230 232 234 237 239 243 245 248 251 254 256 259 262 265 267 268 268 267 267 269 270 269 269 270 272 274 276 277 275 273 271 270 270 270 270 270 270 271 271 273 273 272 271 271 271 271 270 269 267 264 262 259 258 257 256 255 254 253 253 253 254 255 256 258 259 259 258 257 256 254 252 251 249 248
234 233 232 231 230 230 229 228 227 228 229 232 235 237 239 242 245 248 251 254 256 259 262 265 268 269 269 268 269 270 271 271 270 271 272 273 273 272 270 267 266 267 268 269 270 271 271 270 270 271 271 272 272 271 271 272 272 272 270 267 265 263 262 260 258 256 254 252 250 251 252 254 256 258 259 259 259 258 258 257 256 255 253 251 249
231 232 232 231 230 230 229 228 228 228 230 232 236 239 241 244 246 249 253 256 259 263 266 268 269 271 271 270 271 272 272 271 271 271 271 270 267 263 260 260 261 264 267 270 272 273 273 273 273 273 273 273 272 272 273 275 275 273 271 270 269 267 264 262 258 255 251 249 249 250 252 254 257 258 259 259 259 257 256 255 254 253 252 251 249
230 231 231 231 231 231 231 230 229 230 232 234 237 241 244 246 249 252 256 259 263 266 268 269 270 272 273 273 273 272 271 270 270 269 266 264 259 254 251 254 258 262 266 271 274 276 277 277 276 274 273 272 272 274 275 276 275 273 272 270 268 264 261 259 256 252 250 249 249 251 253 255 257 259 261 260 258 256 254 252 252 251 251 251 249
229 229 230 231 232 231 231 231 232 233 235 238 242 245 248 250 253 256 258 261 264 266 267 268 270 272 273 274 274 272 270 269 267 265 260 257 251 247 247 251 255 260 266 271 275 276 276 275 274 274 272 271 272 273 274 273 271 268 265 261 257 255 253 252 252 251 250 251 252 252 253 255 258 261 263 262 259 255 252 251 251 251 250 249 248
227 227 229 230 230 231 232 232 233 235 238 241 245 248 250 253 256 258 260 262 263 264 264 266 269 272 273 273 273 272 269 267 264 259 255 251 246 243 245 249 253 258 265 269 271 272 272 272 271 271 270 269 270 271 270 268 264 258 253 248 245 245 245 246 249 251 253 254 254 252 251 253 259 264 267 265 261 257 254 253 252 250 247 244 242
228 227 227 227 229 231 232 233 234 237 240 242 245 248 251 254 256 258 259 260 260 261 262 265 268 271 272 273 272 270 268 264 260 255 251 247 243 242 244 248 251 256 261 264 265 267 268 269 268 268 267 268 267 266 264 260 254 247 241 236 233 234 238 242 246 251 254 254 253 250 249 252 258 264 267 266 262 258 255 253 249 245 241 237 235
229 228 227 228 230 232 233 234 236 238 240 243 246 249 252 254 256 258 259 259 259 260 262 265 268 271 272 272 271 269 265 260 256 252 247 244 242 241 244 247 250 253 257 260 262 263 265 266 267 267 266 266 264 260 255 249 244 238 233 229 226 227 231 237 243 248 252 252 248 246 247 251 257 261 263 262 259 255 251 247 243 239 234 231 230
231 230 230 230 231 233 234 236 237 239 242 245 248 250 252 254 256 257 258 258 258 260 262 265 267 270 271 272 270 268 264 257 252 249 245 242 240 241 243 246 247 247 251 257 260 262 264 265 266 266 265 264 261 255 247 239 234 230 227 226 225 225 228 232 239 244 247 245 242 240 243 248 255 258 259 258 255 251 247 243 238 233 229 228 228
233 233 233 233 233 235 236 238 239 241 243 245 247 250 252 253 255 256 257 258 259 260 262 263 266 268 270 270 268 266 261 254 249 246 244 241 240 240 242 245 244 242 245 252 257 261 264 266 265 264 262 261 258 253 243 231 225 224 224 223 224 224 226 229 234 238 239 237 233 231 232 239 248 257 259 257 255 252 248 243 236 230 226 225 227
233 234 235 236 236 237 238 238 240 242 243 245 247 249 250 252 254 255 256 258 259 260 261 262 264 266 268 267 265 263 258 250 245 243 242 241 239 239 240 242 242 238 239 246 253 258 263 266 265 263 261 257 254 250 242 227 219 220 221 223 223 224 224 225 228 230 232 231 227 222 222 227 234 244 252 253 252 250 247 241 233 228 224 223 224
233 234 236 237 238 238 239 239 240 241 242 244 246 248 250 251 253 255 256 258 259 260 260 260 262 265 266 264 262 260 255 247 241 240 241 240 239 238 238 240 239 235 234 238 245 251 257 260 261 261 260 255 249 246 240 229 219 216 218 221 224 224 223 223 224 225 226 227 224 221 223 227 230 231 236 240 242 239 235 230 225 220 215 214 215
Height
10513 10515 10518 10519 10520 10522 10523 10525 10527 10529 10530 10531 10532 10534 10536 10538 10541 10543 10544 10546 10548 10549 10550 10552 10553 10554 10556 10558 10559 10560 10562 10563 10564 10565 10566 10567 10568 10569 10571 10573 10574 10576 10579 10581 10583 10586 10588 10590 10591 10593 10594 10596 10597 10599 10600 10602 10604 10606 10608 10610 10612 10614 10615 10616 10614 10611 10615 10620 10621 10622 10625 10627 10627 10630 10632 10634 10635 10637 10638 10638 10639 10641 10643 10644 10645
10504 10507 10508 10510 10511 10512 10514 10517 10518 10519 10521 10522 10523 10525 10528 10530 10532 10534 10536 10538 10540 10541 10542 10543 10544 10546 10548 10550 10551 10552 10553 10554 10555 10556 10557 10557 10558 10559 10561 10563 10564 10566 10569 10571 10574 10576 10578 10580 10582 10584 10585 10587 10589 10591 10592 10594 10596 10598 10600 10602 10604 10607 10608 10609 10608 10605 10605 10610 10613 10613 10616 10619 10619 10621 10624 10626 10628 10630 10631 10631 10632 10634 10635 10636 10638
10494 10497 10499 10501 10502 10503 10505 10507 10509 10510 10511 10512 10514 10517 10520 10522 10524 10525 10527 10529 10531 10532 10534 10535 10536 10537 10539 10541 10542 10543 10544 10545 10546 10547 10547 10548 10549 10551 10552 10554 10556 10558 10560 10562 10564 10566 10568 10570 10572 10574 10576 10578 10580 10582 10584 10586 10588 10590 10591 10594 10595 10598 10600 10601 10601 10600 10598 10599 10602 10604 10607 10610 10610 10611 10615 10618 10620 10623 10624 10624 10625 10627 10628 10629 10631
10482 10486 10489 10491 10492 10493 10494 10496 10499 10500 10500 10501 10505 10508 10510 10513 10514 10516 10518 10521 10522 10524 10526 10526 10527 10528 10530 10531 10532 10533 10534 10535 10536 10537 10538 10539 10541 10542 10544 10546 10548 10550 10552 10554 10556 10557 10559 10561 10563 10565 10566 10569 10571 10573 10575 10577 10579 10581 10582 10585 10587 10589 10591 10593 10594 10593 10592 10590 10592 10595 10597 10599 10600 10602 10605 10608 10610 10613 10615 10616 10617 10620 10621 10622 10623
10470 10473 10476 10480 10482 10483 10483 10485 10489 10490 10490 10492 10493 10496 10500 10503 10505 10507 10510 10512 10513 10515 10516 10517 10518 10519 10520 10521 10522 10523 10524 10525 10526 10527 10528 10530 10532 10533 10535 10538 10540 10542 10544 10546 10548 10550 10552 10553 10555 10557 10558 10560 10562 10564 10566 10568 10569 10571 10573 10575 10577 10579 10582 10584 10585 10586 10586 10584 10582 10585 10588 10590 10591 10591 10594 10597 10599 10601 10605 10607 10609 10612 10614 10615 10616
10461 10462 10464 10466 10470 10472 10472 10474 10477 10479 10480 10481 10481 10484 10489 10493 10496 10498 10500 10503 10504 10505 10505 10506 10507 10508 10509 10511 10511 10512 10513 10515 10516 10517 10519 10521 10523 10525 10527 10529 10531 10533 10534 10537 10539 10541 10543 10545 10547 10549 10550 10552 10554 10555 10557 10559 10560 10562 10563 10564 10567 10570 10572 10574 10576 10578 10579 10577 10575 10575 10578 10580 10582 10581 10582 10586 10589 10590 10593 10597 10599 10602 10605 10607 10608
10451 10452 10454 10455 10457 10460 10461 10463 10466 10468 10470 10470 10471 10474 10478 10481 10484 10487 10490 10495 10494 10492 10493 10495 10496 10497 10498 10499 10500 10500 10501 10503 10505 10507 10510 10512 10514 10516 10518 10519 10521 10523 10525 10527 10529 10531 10533 10535 10537 10539 10541 10542 10544 10546 10548 10550 10551 10552 10553 10555 10557 10560 10562 10564 10567 10569 10570 10570 10568 10567 10568 10570 10572 10572 10570 10574 10579 10580 10581 10586 10590 10592 10594 10597 10598
10441 10442 10443 10445 10446 10448 10450 10452 10454 10457 10459 10460 10462 10464 10466 10469 10472 10476 10482 10485 10482 10482 10485 10485 10484 10485 10485 10486 10488 10487 10488 10490 10493 10496 10499 10501 10502 10504 10507 10509 10511 10513 10515 10517 10519 10521 10522 10524 10526 10528 10531 10532 10533 10535 10537 10539 10541 10542 10543 10545 10548 10550 10552 10554 10557 10559 10561 10562 10561 10559 10559 10561 10562 10562 10560 10562 10567 10570 10571 10576 10579 10581 10583 10587 10588
10432 10433 10433 10435 10436 10438 10440 10441 10443 10446 10448 10450 10452 10454 10456 10459 10461 10465 10470 10469 10468 10472 10472 10468 10469 10472 10470 10471 10472 10472 10472 10476 10481 10485 10488 10489 10491 10493 10496 10498 10501 10503 10505 10507 10509 10511 10512 10514 10516 10518 10520 10522 10523 10525 10527 10528 10530 10532 10532 10535 10538 10540 10542 10544 10546 10548 10550 10552 10553 10551 10551 10552 10551 10551 10550 10551 10555 10559 10561 10565 10570 10571 10572 10576 10578
10421 10423 10424 10425 10426 10428 10430 10431 10432 10434 10437 10440 10441 10442 10445 10448 10450 10454 10456 10454 10455 10459 10456 10454 10457 10459 10456 10456 10458 10459 10461 10464 10470 10474 10477 10478 10480 10482 10484 10487 10489 10491 10494 10496 10498 10500 10501 10503 10505 10507 10509 10511 10512 10514 10516 10517 10519 10521 10522 10524 10527 10529 10531 10533 10534 10536 10538 10541 10542 10542 10542 10542 10540 10539 10540 10542 10544 10548 10551 10554 10559 10561 10561 10564 10566
10410 10412 10413 10415 10416 10417 10419 10421 10423 10424 10425 10428 10430 10432 10434 10437 10439 10442 10444 10444 10445 10447 10446 10445 10447 10447 10446 10447 10449 10450 10451 10453 10458 10463 10465 10467 10468 10470 10472 10475 10477 10480 10482 10484 10486 10488 10490 10492 10494 10496 10497 10499 10501 10503 10504 10506 10508 10510 10512 10513 10515 10518 10520 10521 10522 10524 10526 10529 10530 10530 10531 10531 10529 10527 10529 10531 10533 10538 10542 10544 10547 10549 10550 10554 10556
10400 10401 10402 10404 10405 10407 10408 10411 10412 10414 10415 10416 10418 10421 10423 10425 10427 10430 10432 10432 10434 10436 10436 10436 10436 10436 10437 10438 10439 10440 10441 10443 10446 10449 10452 10454 10455 10457 10460 10463 10465 10467 10469 10471 10474 10475 10478 10480 10482 10483 10485 10487 10489 10491 10493 10495 10496 10498 10501 10503 10504 10506 10507 10509 10510 10512 10514 10516 10518 10519 10519 10520 10519 10517 10518 10520 10522 10526 10530 10533 10534 10536 10538 10542 10546
10392 10391 10391 10392 10393 10395 10397 10399 10402 10403 10404 10406 10407 10409 10411 10413 10415 10418 10420 10422 10423 10425 10425 10425 10425 10425 10426 10427 10428 10429 10431 10433 10434 10436 10439 10441 10443 10446 10449 10451 10453 10455 10457 10460 10462 10464 10466 10467 10469 10471 10473 10475 10478 10480 10482 10484 10485 10487 10489 10491 10493 10494 10495 10496 10498 10499 10501 10503 10506 10508 10507 10507 10509 10508 10506 10507 10511 10514 10517 10520 10521 10523 10526 10530 10534
10381 10382 10381 10381 10381 10383 10385 10388 10391 10392 10394 10395 10397 10399 10400 10402 10404 10405 10408 10411 10412 10413 10413 10414 10415 10415 10415 10415 10416 10418 10421 10423 10423 10424 10426 10428 10431 10434 10436 10438 10441 10443 10445 10447 10449 10451 10453 10455 10457 10459 10460 10463 10465 10468 10470 10472 10474 10475 10477 10479 10480 10481 10482 10483 10484 10486 10488 10490 10493 10495 10494 10494 10497 10497 10494 10493 10497 10500 10502 10505 10508 10511 10515 10518 10522
10369 10369 10369 10369 10370 10372 10375 10378 10380 10382 10383 10385 10386 10387 10389 10390 10391 10393 10396 10399 10401 10401 10401 10402 10403 10404 10404 10404 10405 10408 10410 10412 10412 10413 10414 10416 10419 10421 10423 10426 10428 10430 10432 10434 10436 10438 10440 10442 10444 10446 10448 10450 10452 10454 10457 10460 10462 10463 10464 10466 10467 10468 10469 10469 10470 10472 10474 10476 10479 10481 10481 10480 10481 10482 10480 10478 10481 10484 10487 10491 10494 10498 10502 10506 10509
10356 10356 10356 10357 10359 10362 10365 10368 10370 10372 10373 10374 10375 10376 10376 10377 10378 10380 10383 10386 10388 10389 10389 10389 10390 10392 10393 10394 10396 10398 10399 10399 10400 10402 10404 10406 10407 10408 10410 10413 10415 10417 10419 10422 10424 10425 10427 10429 10432 10434 10436 10438 10439 10441 10443 10446 10449 10451 10452 10453 10454 10455 10456 10456 10456 10457 10459 10461 10464 10465 10465 10465 10464 10465 10464 10463 10465 10468 10471 10477 10481 10484 10488 10491 10494
10342 10342 10344 10347 10350 10353 10356 10358 10360 10361 10362 10363 10364 10365 10365 10366 10367 10368 10369 10372 10374 10375 10377 10378 10379 10380 10382 10384 10386 10388 10387 10388 10389 10392 10395 10396 10397 10397 10398 10399 10401 10404 10407 10409 10411 10413 10414 10416 10419 10422 10424 10425 10426 10428 10430 10432 10435 10438 10439 10440 10441 10442 10442 10441 10440 10442 10444 10447 10448 10448 10449 10449 10449 10449 10448 10448 10449 10451 10455 10463 10467 10467 10472 10478 10481
10329 10330 10334 10337 10340 10343 10345 10347 10349 10351 10351 10352 10353 10353 10354 10356 10357 10357 10358 10360 10361 10362 10363 10365 10367 10370 10372 10373 10375 10376 10376 10378 10380 10382 10384 10385 10386 10387 10387 10387 10389 10391 10394 10396 10398 10400 10402 10403 10405 10408 10410 10411 10412 10414 10416 10418 10421 10424 10426 10427 10428 10428 10426 10424 10425 10428 10430 10430 10430 10431 10432 10433 10433 10433 10432 10432 10433 10435 10441 10449 10450 10451 10458 10465 10468
10317 10321 10324 10327 10329 10332 10334 10336 10338 10340 10341 10342 10342 10342 10343 10344 10346 10347 10347 10348 10349 10350 10351 10353 10356 10359 10360 10361 10362 10363 10364 10367 10369 10371 10372 10374 10375 10375 10375 10376 10378 10379 10380 10382 10384 10386 10388 10389 10391 10393 10395 10397 10399 10401 10402 10404 10407 10409 10411 10413 10414 10412 10409 10408 10411 10412 10412 10412 10412 10412 10413 10413 10412 10413 10414 10416 10418 10421 10428 10434 10435 10437 10445 10451 10454
10308 10311 10314 10316 10319 10321 10323 10325 10326 10328 10329 10330 10330 10331 10332 10333 10335 10336 10337 10338 10338 10339 10341 10343 10345 10346 10346 10347 10349 10351 10352 10355 10358 10359 10361 10362 10363 10363 10364 10365 10367 10368 10369 10370 10371 10372 10373 10375 10377 10378 10380 10383 10385 10387 10389 10390 10392 10394 10396 10397 10397 10395 10392 10393 10395 10394 10393 10394 10394 10393 10392 10390 10390 10393 10397 10400 10404 10408 10414 10420 10422 10425 10431 10437 10441
10298 10300 10303 10307 10309 10311 10312 10313 10315 10316 10317 10318 10318 10319 10320 10321 10324 10326 10327 10328 10328 10328 10330 10333 10334 10334 10335 10335 10336 10339 10342 10345 10347 10348 10349 10350 10350 10351 10353 10354 10356 10357 10358 10359 10359 10360 10360 10362 10363 10364 10366 10369 10371 10374 10376 10377 10378 10380 10381 10381 10380 10378 10377 10378 10378 10377 10377 10376 10374 10372 10372 10372 10374 10377 10381 10385 10388 10392 10397 10403 10408 10411 10416 10422 10427
10286 10288 10292 10296 10298 10299 10301 10302 10303 10304 10305 10306 10307 10307 10308 10310 10313 10316 10317 10318 10318 10318 10320 10322 10323 10323 10325 10325 10325 10327 10330 10333 10336 10337 10338 10338 10338 10340 10341 10342 10343 10345 10347 10347 10348 10348 10349 10349 10350 10352 10353 10355 10358 10360 10362 10363 10364 10366 10365 10365 10364 10363 10363 10363 10363 10361 10360 10358 10357 10358 10359 10360 10362 10364 10366 10368 10371 10373 10378 10385 10391 10396 10401 10406 10411
10276 10279 10283 10285 10286 10287 10289 10291 10292 10292 10294 10295 10296 10297 10298 10300 10303 10306 10307 10308 10308 10308 10310 10312 10314 10314 10315 10315 10315 10317 10319 10322 10324 10326 10326 10326 10328 10329 10330 10331 10332 10333 10336 10337 10337 10337 10338 10338 10339 10340 10341 10343 10345 10346 10348 10350 10351 10351 10350 10349 10349 10348 10348 10347 10346 10345 10344 10345 10347 10350 10350 10350 10350 10350 10350 10351 10353 10356 10361 10368 10375 10380 10384 10388 10393
10268 10271 10273 10274 10275 10276 10278 10279 10280 10281 10283 10285 10286 10287 10289 10291 10293 10296 10297 10297 10297 10299 10300 10303 10304 10305 10306 10306 10306 10307 10309 10310 10312 10314 10315 10316 10318 10319 10320 10320 10322 10323 10325 10326 10327 10327 10328 10328 10328 10329 10330 10331 10332 10334 10335 10337 10337 10337 10336 10334 10334 10333 10332 10331 10331 10332 10335 10338 10339 10340 10339 10338 10338 10338 10336 10337 10339 10342 10346 10351 10356 10361 10365 10369 10374
10262 10263 10263 10264 10265 10266 10267 10267 10268 10270 10272 10274 10275 10277 10279 10281 10283 10286 10287 10288 10288 10290 10292 10293 10294 10296 10297 10297 10297 10298 10299 10300 10301 10302 10304 10306 10307 10309 10310 10311 10312 10314 10315 10316 10316 10317 10317 10318 10318 10318 10319 10320 10322 10323 10324 10324 10323 10322 10321 10320 10319 10319 10319 10320 10321 10324 10327 10329 10329 10328 10327 10326 10326 10326 10324 10324 10327 10329 10331 10335 10340 10344 10348 10351 10355
10254 10253 10253 10254 10255 10256 10257 10257 10258 10261 10263 10264 10266 10267 10270 10272 10274 10276 10278 10279 10280 10281 10282 10283 10285 10286 10287 10288 10289 10290 10291 10291 10292 10293 10294 10295 10297 10298 10300 10301 10302 10303 10304 10305 10306 10306 10307 10307 10308 10308 10309 10310 10311 10312 10312 10311 10309 10308 10308 10307 10308 10309 10310 10312 10314 10316 10317 10317 10317 10316 10315 10313 10313 10313 10313 10313 10315 10317 10320 10323 10327 10331 10334 10336 10340
10244 10243 10244 10245 10246 10247 10247 10248 10250 10253 10255 10256 10257 10259 10262 10264 10266 10268 10270 10271 10272 10272 10273 10274 10276 10278 10279 10279 10280 10281 10282 10283 10284 10284 10285 10286 10287 10289 10290 10292 10293 10294 10294 10295 10295 10296 10297 10297 10298 10299 10299 10300 10300 10300 10300 10299 10298 10298 10298 10298 10299 10301 10302 10304 10305 10306 10306 10306 10305 10305 10302 10301 10302 10302 10302 10304 10305 10307 10310 10313 10316 10319 10320 10323 10327
10233 10233 10235 10236 10237 10238 10239 10241 10243 10245 10247 10249 10250 10252 10255 10257 10258 10260 10261 10263 10264 10265 10266 10267 10268 10269 10270 10270 10271 10272 10273 10274 10274 10275 10276 10278 10279 10280 10282 10283 10284 10284 10285 10285 10286 10287 10287 10288 10288 10288 10289 10289 10289 10289 10289 10289 10289 10290 10289 10289 10290 10291 10292 10294 10295 10296 10296 10295 10294 10293 10291 10292 10293 10293 10294 10295 10296 10297 10300 10304 10305 10306 10308 10312 10316
10224 10225 10227 10228 10229 10230 10231 10233 10236 10237 10239 10241 10243 10244 10246 10247 10249 10251 10253 10255 10256 10257 10258 10259 10259 10260 10261 10262 10263 10263 10264 10265 10266 10266 10268 10269 10270 10271 10272 10274 10274 10275 10275 10276 10277 10277 10277 10277 10278 10280 10280 10281 10280 10280 10280 10281 10282 10281 10281 10280 10281 10282 10283 10285 10286 10286 10286 10285 10284 10283 10283 10284 10284 10284 10286 10286 10287 10288 10292 10294 10295 10296 10298 10302 10305
10216 10218 10219 10220 10222 10223 10224 10226 10227 10229 10230 10232 10233 10235 10236 10238 10240 10242 10244 10246 10247 10248 10249 10250 10251 10252 10253 10254 10254 10255 10256 10257 10258 10259 10260 10261 10262 10263 10264 10265 10265 10266 10266 10266 10266 10267 10268 10270 10271 10272 10271 10271 10271 10272 10273 10274 10273 10272 10272 10272 10273 10274 10276 10277 10277 10277 10277 10276 10276 10275 10275 10275 10276 10276 10278 10278 10279 10280 10283 10284 10285 10287 10289 10291 10293
10209 10211 10212 10213 10214 10215 10217 10218 10220 10221 10222 10224 10225 10227 10229 10231 10232 10234 10236 10237 10238 10240 10241 10242 10243 10244 10245 10246 10247 10248 10249 10250 10251 10252 10252 10253 10254 10255 10256 10256 10256 10256 10255 10256 10257 10260 10263 10263 10262 10261 10262 10263 10263 10264 10265 10265 10265 10264 10265 10265 10266 10267 10268 10268 10269 10269 10269 10269 10268 10268 10267 10268 10268 10269 10270 10271 10271 10273 10274 10275 10277 10278 10279 10281 10282
10202 10203 10205 10206 10207 10208 10210 10212 10213 10214 10215 10217 10218 10220 10222 10223 10225 10227 10228 10229 10231 10232 10233 10234 10235 10237 10238 10239 10240 10241 10242 10242 10243 10244 10245 10246 10246 10247 10247 10247 10247 10246 10247 10250 10254 10255 10255 10254 10252 10253 10254 10255 10256 10256 10257 10257 10257 10258 10258 10258 10259 10260 10260 10260 10260 10261 10261 10261 10261 10260 10260 10261 10261 10262 10263 10264 10265 10265 10266 10267 10269 10270 10271 10272 10273
10195 10196 10198 10199 10200 10202 10203 10205 10206 10208 10209 10211 10212 10214 10215 10217 10218 10220 10221 10222 10224 10225 10226 10228 10229 10230 10231 10232 10233 10234 10235 10235 10236 10238 10239 10239 10239 10239 10238 10238 10239 10241 10245 10248 10249 10248 10247 10246 10246 10247 10248 10248 10249 10249 10250 10250 10251 10251 10251 10251 10251 10252 10253 10253 10253 10254 10254 10254 10254 10253 10254 10254 10255 10255 10257 10258 10258 10259 10260 10260 10261 10263 10264 10264 10265
10189 10191 10192 10193 10194 10196 10198 10199 10201 10202 10204 10205 10207 10208 10209 10211 10212 10214 10215 10217 10218 10219 10221 10222 10223 10224 10225 10226 10227 10228 10229 10230 10231 10232 10232 10232 10231 10231 10230 10231 10235 10239 10242 10243 10241 10240 10240 10240 10241 10241 10242 10242 10242 10243 10243 10244 10244 10244 10244 10244 10244 10245 10247 10247 10247 10247 10248 10247 10247 10247 10248 10248 10249 10250 10251 10252 10253 10253 10254 10254 10255 10256 10257 10258 10259
10184 10185 10186 10188 10189 10190 10192 10194 10195 10197 10198 10200 10201 10202 10204 10206 10207 10209 10210 10212 10213 10215 10216 10217 10218 10219 10220 10221 10222 10223 10225 10226 10226 10226 10225 10225 10224 10225 10226 10229 10232 10235 10237 10236 10234 10234 10234 10234 10235 10236 10236 10236 10236 10236 10237 10237 10237 10237 10237 10238 10239 10240 10241 10242 10242 10242 10242 10242 10242 10242 10243 10243 10244 10245 10246 10247 10248 10248 10248 10249 10249 10250 10250 10252 10253
10179 10181 10182 10183 10184 10186 10187 10189 10190 10192 10193 10194 10196 10197 10199 10201 10202 10204 10206 10207 10208 10210 10211 10212 10213 10214 10215 10216 10217 10219 10220 10220 10220 10220 10220 10220 10220 10221 10223 10226 10228 10229 10229 10229 10229 10229 10228 10228 10229 10230 10230 10231 10231 10231 10231 10231 10232 10232 10232 10233 10234 10235 10235 10236 10236 10236 10236 10236 10237 10237 10238 10239 10239 10240 10241 10241 10242 10242 10243 10243 10244 10244 10245 10247 10248
10174 10176 10177 10178 10180 10181 10183 10185 10186 10187 10189 10190 10192 10193 10195 10197 10198 10200 10201 10203 10204 10205 10207 10208 10209 10210 10211 10212 10213 10214 10214 10214 10215 10216 10216 10215 10216 10218 10220 10222 10222 10222 10222 10223 10224 10224 10223 10224 10224 10225 10226 10227 10227 10227 10227 10226 10227 10227 10228 10228 10229 10230 10230 10230 10231 10231 10231 10232 10232 10232 10233 10234 10234 10235 10236 10236 10237 10238 10238 10239 10239 10240 10241 10242 10244
10169 10171 10172 10174 10175 10177 10179 10180 10182 10184 10185 10187 10188 10190 10192 10193 10195 10196 10198 10199 10200 10202 10203 10204 10205 10206 10207 10208 10208 10209 10209 10210 10211 10212 10211 10211 10212 10214 10216 10217 10216 10216 10217 10218 10219 10219 10220 10220 10221 10221 10222 10222 10223 10223 10223 10222 10223 10223 10224 10224 10224 10225 10225 10225 10226 10226 10227 10227 10228 10228 10229 10229 10230 10230 10231 10232 10233 10233 10234 10234 10235 10236 10237 10238 10239
10165 10166 10168 10169 10171 10173 10175 10176 10178 10180 10181 10183 10185 10187 10188 10190 10191 10193 10194 10195 10197 10198 10199 10200 10201 10202 10203 10204 10204 10204 10205 10207 10207 10207 10207 10208 10209 10210 10211 10211 10211 10212 10213 10214 10215 10216 10217 10217 10217 10218 10218 10218 10219 10219 10218 10218 10219 10219 10220 10220 10220 10221 10221 10221 10221 10222 10223 10223 10224 10224 10224 10225 10225 10226 10227 10228 10229 10229 10230 10230 10231 10232 10233 10233 10234
10161 10162 10164 10166 10167 10169 10171 10173 10175 10176 10178 10180 10182 10184 10185 10187 10188 10190 10191 10192 10193 10195 10196 10197 10198 10198 10199 10199 10200 10201 10202 10202 10202 10202 10203 10204 10205 10206 10207 10207 10207 10208 10209 10211 10212 10213 10214 10214 10214 10214 10214 10214 10214 10214 10214 10214 10215 10215 10216 10216 10217 10217 10217 10217 10218 10218 10219 10219 10220 10220 10221 10221 10222 10223 10224 10225 10225 10225 10226 10226 10227 10228 10229 10229 10230
10157 10158 10160 10162 10164 10166 10168 10169 10171 10173 10175 10177 10179 10181 10182 10184 10185 10186 10188 10189 10190 10191 10192 10194 10194 10195 10195 10195 10196 10197 10198 10198 10197 10198 10199 10200 10201 10202 10203 10203 10203 10205 10206 10208 10209 10210 10210 10210 10210 10210 10210 10210 10210 10210 10210 10210 10211 10212 10212 10213 10213 10213 10213 10214 10215 10215 10216 10216 10217 10217 10218 10219 10220 10221 10221 10222 10222 10222 10222 10223 10223 10224 10224 10225 10226
10153 10155 10157 10159 10161 10163 10165 10166 10168 10170 10172 10174 10176 10177 10179 10181 10182 10183 10185 10186 10187 10188 10189 10190 10190 10191 10191 10191 10192 10193 10193 10193 10193 10194 10195 10196 10198 10199 10199 10199 10200 10202 10203 10205 10206 10206 10206 10206 10207 10207 10207 10207 10207 10207 10207 10207 10208 10208 10208 10209 10209 10210 10210 10211 10212 10213 10213 10213 10214 10214 10215 10217 10217 10218 10218 10219 10219 10219 10219 10220 10220 10220 10221 10222 10223
10150 10152 10154 10156 10158 10160 10161 10163 10165 10167 10169 10170 10172 10174 10176 10177 10179 10180 10181 10182 10183 10184 10185 10186 10187 10187 10187 10187 10188 10189 10189 10188 10189 10190 10192 10193 10195 10196 10196 10197 10198 10199 10200 10201 10202 10202 10203 10203 10203 10204 10204 10204 10204 10204 10204 10204 10205 10205 10205 10206 10207 10207 10208 10209 10210 10210 10210 10211 10211 10212 10214 10214 10215 10215 10216 10216 10216 10216 10217 10217 10217 10218 10218 10219 10220
10147 10149 10151 10153 10155 10157 10159 10161 10162 10164 10166 10167 10169 10171 10172 10174 10175 10176 10178 10179 10180 10181 10182 10182 10183 10183 10183 10184 10184 10185 10185 10185 10185 10187 10188 10190 10191 10193 10193 10194 10195 10196 10197 10198 10199 10199 10200 10200 10200 10200 10200 10201 10201 10201 10201 10201 10202 10202 10203 10204 10204 10205 10206 10207 10208 10208 10208 10209 10210 10211 10212 10212 10213 10213 10213 10213 10214 10214 10214 10215 10215 10215 10216 10216 10217
10144 10146 10148 10150 10152 10154 10156 10158 10160 10161 10163 10165 10166 10168 10169 10170 10172 10173 10174 10176 10177 10178 10178 10179 10180 10180 10180 10180 10181 10181 10181 10181 10182 10183 10185 10187 10188 10190 10190 10191 10192 10194 10195 10196 10196 10196 10197 10197 10197 10197 10197 10198 10198 10198 10198 10199 10200 10200 10201 10202 10203 10204 10205 10205 10206 10206 10206 10207 10208 10209 10210 10210 10211 10211 10211 10211 10211 10212 10212 10212 10213 10213 10213 10214 10215
10140 10143 10145 10147 10149 10151 10153 10155 10157 10158 10160 10162 10163 10164 10166 10167 10168 10170 10171 10172 10173 10174 10175 10176 10176 10176 10176 10176 10177 10177 10177 10177 10178 10180 10182 10184 10185 10187 10187 10188 10190 10191 10192 10193 10193 10194 10194 10194 10194 10194 10195 10195 10195 10196 10196 10197 10197 10198 10199 10200 10201 10202 10203 10204 10204 10204 10205 10205 10206 10207 10208 10208 10209 10209 10209 10209 10210 10210 10210 10211 10211 10211 10212 10213 10213
10136 10139 10141 10143 10145 10147 10149 10151 10153 10155 10157 10158 10159 10161 10162 10163 10164 10166 10167 10168 10169 10170 10171 10172 10172 10172 10172 10172 10173 10173 10174 10174 10175 10177 10179 10180 10182 10184 10185 10186 10187 10189 10189 10190 10190 10191 10191 10191 10191 10192 10192 10192 10193 10193 10194 10194 10195 10196 10197 10198 10199 10200 10201 10201 10202 10203 10203 10204 10204 10205 10206 10207 10207 10207 10208 10208 10208 10209 10209 10209 10210 10210 10211 10211 10212
10132 10135 10137 10139 10141 10143 10145 10147 10149 10151 10153 10154 10155 10157 10158 10159 10160 10161 10163 10164 10165 10167 10168 10168 10168 10168 10168 10169 10169 10170 10170 10171 10172 10174 10175 10177 10179 10181 10182 10183 10185 10186 10187 10187 10188 10188 10189 10189 10189 10189 10190 10190 10190 10191 10191 10192 10193 10194 10195 10196 10197 10198 10199 10200 10200 10201 10201 10202 10203 10204 10204 10205 10206 10206 10206 10207 10207 10207 10208 10208 10209 10209 10209 10210 10211
10129 10131 10133 10135 10138 10140 10141 10143 10145 10147 10148 10150 10151 10152 10153 10155 10156 10157 10158 10160 10161 10162 10163 10164 10164 10164 10164 10165 10166 10166 10167 10168 10169 10170 10172 10174 10176 10178 10179 10180 10182 10183 10184 10184 10185 10186 10186 10186 10187 10187 10187 10187 10187 10188 10189 10190 10190 10191 10193 10194 10195 10196 10197 10198 10199 10199 10200 10200 10201 10202 10203 10204 10204 10205 10205 10205 10206 10206 10207 10207 10208 10208 10208 10209 10210
10126 10128 10130 10132 10134 10135 10137 10139 10140 10142 10143 10145 10146 10147 10149 10150 10151 10152 10154 10155 10157 10158 10159 10159 10160 10160 10161 10161 10162 10163 10164 10165 10166 10167 10169 10171 10173 10175 10176 10177 10179 10181 10182 10182 10183 10183 10184 10184 10184 10185 10185 10185 10185 10185 10186 10187 10188 10189 10190 10192 10193 10194 10195 10196 10197 10198 10199 10199 10200 10201 10202 10203 10203 10204 10204 10205 10205 10206 10206 10207 10207 10208 10208 10209 10210
10122 10124 10126 10128 10130 10131 10133 10134 10136 10137 10138 10140 10142 10143 10144 10145 10147 10148 10149 10151 10152 10153 10154 10155 10156 10156 10157 10158 10159 10160 10160 10161 10163 10164 10166 10168 10170 10172 10173 10174 10176 10178 10179 10180 10180 10181 10182 10182 10182 10182 10182 10182 10182 10182 10183 10184 10185 10186 10188 10189 10191 10192 10194 10194 10195 10196 10197 10198 10199 10200 10201 10202 10203 10203 10204 10205 10205 10206 10206 10207 10207 10208 10208 10209 10210